arxmliv
arxmliv build tool
 
KWARC group
LaTeXML
About
   
 

Detailed info

Back to Homepage

List of missing_macros

No. Date Filename num_warningnum_errornum_xmargok_xmargnum_xmathok_xmathMissing macros
32601 2013-04-11 13:48:56 /1108/1108.5797 38470000[\Ker, \fm, \ZZ, \Tor, \proj, \Coker, {claim}, \op, \End, {lem}, {cor}, \gldim, {ex}, \fj, \xymatrix, \mods, Align, \bF, \refl, \rank, \Soc, \Image, \fn, \projdim, \CM, {thm}, {defn}, \ar, \Znn, {prop}, \Hom, \add, \refls, \Aut, {rem}, {prob}, \rel]; 2 mi
32602 2013-04-11 13:48:53 /1108/1108.5796 1240000[Align, \xymatrix, \ar]; 1 missing file[xy.sty].
32603 2013-04-11 13:48:50 /1108/1108.5774 4920000[\geometry]; 1 missing file[nccmath.sty].
32604 2013-04-11 13:48:50 /1108/1108.5789 3110000[\rhead, \href, \equal, \ifthenelse, \url, \chead, \lhead, \hypersetup]; 1 missing file[ctextemp_contribution.sty].
32605 2013-04-11 13:48:41 /1108/1108.5780 1340000[\tnoteref, \tnotetext, \cortext, \biboptions].
32606 2013-04-11 13:48:20 /1108/1108.5770 030000[\extrasenglish, \dateenglish, \captionsenglish].
32607 2013-04-11 13:48:13 /1108/1108.5772 120000[{sidewaystable}].
32608 2013-04-11 13:48:07 /1108/1108.5782 230000[\includegraphics]; 1 missing file[ol2.sty].
32609 2013-04-11 13:47:57 /1108/1108.5787 3140000[\fancyhead, {pacs}, {keyword}, \address, \figcaption, \email, \tabcaption, \toprule, \bottomrule]; 2 missing files[cpc-hepnp.cls, lastpage.sty].
32610 2013-04-11 13:47:55 /1108/1108.5751 31150000[Align, \xyoption, \xymatrix, \ar, \CompileMatrices]; 1 missing file[xy.sty].
32611 2013-04-11 13:47:51 /1108/1108.5767 8740000[\@end@institute, \afterpage]; 2 missing files[afterpage.sty, fix-cm.sty].
32612 2013-04-11 13:47:46 /1108/1108.5752 1330000[\theappendix, \al@mokiem05,repo05]; 1 missing file[afterpage.sty].
32613 2013-04-11 13:47:44 /1108/1108.5760 166120000[\eqref, \mathbb, \lesssim, \affiliation, \emailAdd, \acknowledgments, \keywords, \includegraphics, \gtrsim, \afterpage]; 2 missing files[afterpage.sty, jcappub.sty].
32614 2013-04-11 13:47:43 /1108/1108.5766 31550000[\sm, \myex, \myprog, \sms, \olon, \ms, \KBs, \mydef, \wf, \NLP, \lp, \MH, \m, \MHs, \MHS, \amp, Align, \ELPs, \KR, \<, \wfm, \NLPs, \RSMs, \LSed, \mytheo, \undef, \LPs, \KRR, \SMss, \elons, \SCCs, \olons, \lsed, \cms, \ICs, \MHm, \true, \MMs, \twov, \ls,
32615 2013-04-11 13:47:37 /1108/1108.5778 214880000[\pra, \apj, \timeform, \citep, \lesssim, \emissiontype, \color, \aaps, \pasj, \apjl, \aap, \email, \Accepted, \KeyWords, \aj, \Published, \altaffilmark, \Received, \mnras, \apjs, \FigureFile, \gtrsim, \altaffiltext, \citet, \SetRunningHead]; 1 missing fi
32616 2013-04-11 13:47:20 /1108/1108.5755 3920000[\U]; 1 missing file[ot2.fontmap].
32617 2013-04-11 13:47:20 /1108/1108.5759 070000[\josab, \josaa, \oc, \ol, \prl, \onlinecite]; 1 missing file[ol2.sty].
32618 2013-04-11 13:47:18 /1108/1108.5768 4230000[{algorithm}, \EndFor, \TechReportYear, \Else, \TechReportNumber, \TechReportMonth, {algorithmic}, \For, \If, \State, \EndIf]; 1 missing file[cureport.sty].
32619 2013-04-11 13:47:17 /1108/1108.5748 81000000[{overpic}, \psfrag].
32620 2013-04-11 13:47:03 /1108/1108.5732 2560000[\@thanks, \subfloat, \@topnum, \@maketitle].
32621 2013-04-11 13:46:54 /1108/1108.5757 850000[\affil, \cdashline]; 3 missing files[authblk.sty, pst-text.sty, pst-3d.sty].
32622 2013-04-11 13:46:40 /1108/1108.5747 1770000[Align, \xyoption, \xymatrix, \ar, \CompileMatrices]; 1 missing file[xy.sty].
32623 2013-04-11 13:46:00 /1108/1108.5745 050000[\fnref, \subfloat, \linenumbers]; 2 missing files[soul.sty, alphalph.sty].
32624 2013-04-11 13:45:25 /1108/1108.5691 15110000[\theappendix].
32625 2013-04-11 13:45:18 /1108/1108.5713 2140000[Align, \xymatrix, \ar]; 1 missing file[xy.sty].
32626 2013-04-11 13:45:18 /1108/1108.5728 1050000[Align, \xymatrix, \ar]; 2 missing files[mathtools.sty, xy.sty].
32627 2013-04-11 13:45:06 /1108/1108.5616 56010000[\marginsize].
32628 2013-04-11 13:45:05 /1108/1108.5694 8650000[\Text, \ArrowLine, \SetWidth, \Photon, \SetScale].
32629 2013-04-11 13:45:03 /1108/1108.5714 910000[\geometry].
32630 2013-04-11 13:44:52 /1108/1108.5711 13220000[\EdgeL, \SmallPicture, \EdgeR, \Initial, \VCDraw, \LoopS, \scalebox, \ForthBackOffset, \LoopW, \VarLoopOn, {VCPicture}, \Final, \LoopN, \VCPut, \StateVar, \ArcR, \ArcL, \State]; 1 missing file[vaucanson-g.sty].
32631 2013-04-11 13:44:47 /1108/1108.5709 040000[{theacknowledgments}, \layoutstyle, \classification]; 1 missing file[blindtext.sty].
32632 2013-04-11 13:44:28 /1108/1108.5712 030000[\extrasenglish, \dateenglish, \captionsenglish].
32633 2013-04-11 13:44:23 /1108/1108.5700 030000[\subfloat]; 2 missing files[manfnt.sty, asymptote.sty].
32634 2013-04-11 13:44:15 /1108/1108.5705 5410000[{IEEEkeywords}]; 1 missing file[IEEEtran.cls].
32635 2013-04-11 13:44:12 /1108/1108.5706 28290000[\address, \psfrag, \name]; 1 missing file[eusipco2011.sty].
32636 2013-04-11 13:43:53 /1108/1108.5651 3960000[\nicefrac, \theorembodyfont, \theoremstyle, \theoremsymbol]; 3 missing files[mathdesign.sty, xy.sty, scrartcl.cls].
32637 2013-04-11 13:43:37 /1108/1108.5685 670000[\theappendix, \harvardurl, \history, \citep, \harvarditem, \affiliation, \citealp]; 1 missing file[tellus.cls].
32638 2013-04-11 13:43:20 /1108/1108.5696 090000[\ccode, \catchline, \psfig, \refcite, \keywords, {history}, \cdash, \received]; 1 missing file[ws.sty].
32639 2013-04-11 13:43:15 /1108/1108.5679 13230000[\includegraphics, \affil, \acknowledgements, \resetcounters]; 1 missing file[asp2010.sty].
32640 2013-04-11 13:43:13 /1108/1108.5683 2120000[\colhead, \tablehead, \tablewidth, \tabletypesize, \sun, \shortauthors, \startdata, Align, \shorttitle, {deluxetable*}, \tablecaption, \enddata]; 1 missing file[gwp80.cls].
32641 2013-04-11 13:43:11 /1108/1108.5682 1160000[\colhead, \apj, \tablehead, \tablewidth, \tabletypesize, \aap, \shortauthors, \startdata, Align, \shorttitle, \email, {deluxetable*}, \tablecaption, \enddata]; 1 missing file[gwp80.cls].
32642 2013-04-11 13:43:04 /1108/1108.5663 4080000[{xy}, Align, \xymatrix, \ar]; 1 missing file[xy.sty].
32643 2013-04-11 13:43:00 /1108/1108.5684 3310000[\ruOnto, \ruInto, \lTo, \rInto, \rdTo, \rdInto, \ruTo, \rTo, \luTo, Align, \rOnto, \rdOnto, \ldTo, {diagram}]; 1 missing file[diagrams].
32644 2013-04-11 13:42:57 /1108/1108.5674 42250000[\dLine, Align, \ruLine, {diagram}]; 1 missing file[diagrams].
32645 2013-04-11 13:42:36 /1108/1108.5654 9540000[{acknowledgments}, \affiliation, \emailAdd]; 1 missing file[jheppub.sty].
32646 2013-04-11 13:42:34 /1108/1108.5644 2020000[\theappendix, \varGamma].
32647 2013-04-11 13:42:32 /1108/1108.5645 72120000[Align, \xymatrix, \ar]; 9 missing files[xycurve.sty, xymatrix.sty, xyline.sty, xyarrow.sty, xycmtip.sty, xycolor.sty, xyrotate.sty, xyframe.sty, xygraph.sty].
32648 2013-04-11 13:42:31 /1108/1108.5664 710000[{comment}].
32649 2013-04-11 13:42:30 /1108/1108.5673 720000[\ack, \ead].
32650 2013-04-11 13:42:29 /1108/1108.5678 35340000[\dLine, Align, \newarrow, \rdLine, \ruLine, {diagram}]; 1 missing file[diagrams].
32651 2013-04-11 13:42:01 /1108/1108.5635 0190000[\ElseIf, \Sf, \SetKw, {algorithm}, \uIf, \SetKwInOut, \ForEach, \Else, \While, \If, \Output, \tcp, \Input, \nllabel].
32652 2013-04-11 13:42:00 /1108/1108.5668 410000[\pdfminorversion].
32653 2013-04-11 13:41:58 /1108/1108.5662 020000[\layoutstyle, \classification].
32654 2013-04-11 13:41:46 /1108/1108.5622 15150000[{keywords}, \PARstart, \IEEEmembership, {proof}, \geometry]; 1 missing file[IEEEtran.cls].
32655 2013-04-11 13:41:32 /1108/1108.5632 12170000[\setCJKmainfont, \Young, {CJK}, \ifxetex, \setCJKfamilyfont, \setmainfont]; 3 missing files[CJK.sty, ifxetex.sty, xeCJK.sty].
32656 2013-04-11 13:41:21 /1108/1108.5639 440000[Align, \xymatrix, \ar]; 1 missing file[xy.sty].
32657 2013-04-11 13:41:19 /1108/1108.5652 040000[\theappendix, \ocis, \address, \email].
32658 2013-04-11 13:41:03 /1108/1108.5643 120000[\citename]; 2 missing files[IEEEtran.cls, ad.sty].
32659 2013-04-11 13:41:03 /1108/1108.5646 130000[\theappendix].
32660 2013-04-11 13:40:16 /1108/1108.5594 2610000[\slashed].
32661 2013-04-11 13:40:13 /1108/1108.5602 166180000[\Wmun, \Zee, \Zmm, \MEtZ, \Zll, \Wmn, \Wln, \bbbar, \MEtAZ, \inb, \ttbar, \ipb, \Wen, \Wtau]; 2 missing files[stfloats.sty, atlasphysics.sty].
32662 2013-04-11 13:39:52 /1108/1108.5620 26290000[\ccode, \eqref, \catchline, \refcite, \keywords, \includegraphics, {history}, \revised, \text, \received]; 1 missing file[ws.sty].
32663 2013-04-11 13:39:38 /1108/1108.5605 65290000[\dTo, Align, \diagramstyle, \rTo, \ruTo, {diagram}].
32664 2013-04-11 13:39:15 /1108/1108.5624 230000[\authorblockN, \authorblockA, \IEEEpeerreviewmaketitle]; 1 missing file[IEEEtran.cls].
32665 2013-04-11 13:38:36 /1108/1108.5612 6110000[\rhead, \equal, \lhead, \hypersetup, \includegraphics, \href, \ifthenelse, \chead, \url, \text]; 1 missing file[contribution.sty].
32666 2013-04-11 13:38:20 /1108/1108.5570 6740000[Align, \xymatrix, \ar]; 1 missing file[xy.sty].
32667 2013-04-11 13:38:09 /1108/1108.5606 2360000[{acknowledgments}, \affiliation, \emailAdd, \allowdisplaybreaks, \keywords]; 1 missing file[jcappub.sty].
32668 2013-04-11 13:37:57 /1108/1108.5598 138340000[\LOOP, \skewN, \ZZ, \skewIII, \superIN, \CC, \superIIN, \superN, \skewA, \skewW, \superVV, \superAI, \superAII, \SL, \SO, \superIIV, \superI, \superNI, \symmV, \Spin, \superIV, \OG, \symmM, \optidr, \PD, \superNII, \Hom, \Lg, \Sp, \symmN, \GL, \NN, \supe
32669 2013-04-11 13:37:48 /1108/1108.5562 9550000[{sidewaystable}].
32670 2013-04-11 13:37:23 /1108/1108.5571 15100000[{algorithm}, \NP]; 1 missing file[complexity.sty].
32671 2013-04-11 13:37:15 /1108/1108.5591 17640000[\rhead, \equal, \lesssim, \lhead, \hypersetup, \includegraphics, \href, Align, {multline}, \ifthenelse, \chead, \url, \text, {align}]; 1 missing file[contribution.sty].
32672 2013-04-11 13:36:48 /1108/1108.5578 1570000[\drawvector, \placedrawing, \drawdot, \drawthickdot, \drawcenteredtext, \drawshadebox]; 1 missing file[lcad.sty].
32673 2013-04-11 13:36:47 /1108/1108.5582 1110000[\psfrag].
32674 2013-04-11 13:36:43 /1108/1108.5584 1630000[\affil, \geometry]; 1 missing file[authblk.sty].
32675 2013-04-11 13:36:33 /1108/1108.5560 112180000[\kwd, \snm, \affiliation, {keyword}, \thankstext, \fnms, \runtitle, \arxiv, {aug}, \address, \thanksref, \runauthor, \setattribute, \printead, {frontmatter}, \ead]; 1 missing file[imsart.cls].
32676 2013-04-11 13:36:26 /1108/1108.5532 459190000[\dTo, Align, \diagramstyle, \rTo, {diagram}].
32677 2013-04-11 13:35:54 /1108/1108.5557 2750000[Align, \xymatrix, \ar, \CompileMatrices]; 1 missing file[xy.sty].
32678 2013-04-11 13:35:27 /1108/1108.5558 2930000[\pstree, \TC]; 1 missing file[pst-tree.sty].
32679 2013-04-11 13:35:04 /1108/1108.5488 92120000[{prop}, \prefacesection, \thesistype, \beforepreface, \afterpreface, {rem}, \dept, \degree, {lem}]; 2 missing files[uwthesis.sty, mythesis.sty].
32680 2013-04-11 13:34:44 /1108/1108.5565 440000[\mathbb, \mathfrak]; 2 missing files[mathdesign.sty, microtype.sty].
32681 2013-04-11 13:34:40 /1108/1108.5567 5150000[\mcc, \fcomp, \uline, \bapp, \ftype, \fapp, Align, \Tcc, \deriv, \Bc, \bapply, \bs, \infer, \fapply]; 1 missing file[ccg.sty].
32682 2013-04-11 13:34:21 /1108/1108.5535 920000[\includegraphics]; 1 missing file[jheppub.sty].
32683 2013-04-11 13:34:03 /1108/1108.5537 2510000[\setmarginsrb].
32684 2013-04-11 13:33:52 /1108/1108.5541 830000[{IEEEproof}]; 3 missing files[mdwtab.sty, IEEEtran.cls, mdwmath.sty].
32685 2013-04-11 13:33:41 /1108/1108.5533 16330000[\enquote]; 2 missing files[csquotes.sty, tgpagella.sty].
32686 2013-04-11 13:33:29 /1108/1108.5546 280000[\includepdf, \@end@institute]; 2 missing files[pdfpages.sty, fix-cm.sty].
32687 2013-04-11 13:33:25 /1108/1108.5543 020000[\overrideIEEEmargins, \IEEEoverridecommandlockouts].
32688 2013-04-11 13:33:18 /1108/1108.5547 1330000[{IEEEkeywords}]; 1 missing file[IEEEtran.cls].
32689 2013-04-11 13:33:00 /1108/1108.5515 210000[\theappendix].
32690 2013-04-11 13:32:53 /1108/1108.5472 21130000[\IEEEauthorblockA, \IEEEauthorblockN, \appendices]; 1 missing file[IEEEtran.cls].
32691 2013-04-11 13:32:35 /1108/1108.5491 460000[\theappendix, \conferenceinfo, \email, \affaddr, \numberofauthors, \alignauthor].
32692 2013-04-11 13:32:32 /1108/1108.5528 1130000[\includegraphics, \ShortTitle, \email, \FullConference, \speaker]; 1 missing file[PoS.cls].
32693 2013-04-11 13:32:26 /1108/1108.5516 0110000[\tablenotetext, \tablehead, \tablewidth, \tabletypesize, {deluxetable}, Align, \startdata, \tablecaption, \tablenotemark, \enddata]; 1 missing file[deluxetable.sty].
32694 2013-04-11 13:32:16 /1108/1108.5496 10010000[\theappendix].
32695 2013-04-11 13:32:02 /1108/1108.5493 130000[{keywords}, \IEEEmembership]; 2 missing files[IEEEtran.cls, umoline.sty].
32696 2013-04-11 13:31:39 /1108/1108.5464 30040000[\Cref, \cref]; 2 missing files[stackrel.sty, cleveref.sty].
32697 2013-04-11 13:31:34 /1108/1108.5481 320000[\cortext, \biboptions].
32698 2013-04-11 13:30:56 /1108/1108.5351 49540000[\endxy, \xy, \ar]; 1 missing file[xy.sty].
32699 2013-04-11 13:30:53 /1108/1108.5459 2170000[\href, \lesssim, \affiliation, \emailAdd, \acknowledgments, \keywords]; 1 missing file[jcappub.sty].
32700 2013-04-11 13:30:08 /1108/1108.5473 240000[\gtrsim, \affiliation, \acknowledgments]; 1 missing file[jheppub.sty].
32701 2013-04-11 13:28:56 /1108/1108.5458 4450000[\gtrsim, \affiliation, \emailAdd]; 2 missing files[mybibdefs.sty, jcappub.sty].
32702 2013-04-11 13:28:50 /1108/1108.5367 318590000[Align, \xymatrix, \ar]; 2 missing files[xy.sty, xr-hyper.sty].
32703 2013-04-11 13:28:40 /1108/1108.5444 710000[Align].
32704 2013-04-11 13:28:37 /1108/1108.5440 310000[\subfloat].
32705 2013-04-11 13:28:36 /1108/1108.5395 7730000[{appendices}, {keywords}, {proof}]; 1 missing file[IEEEtran.cls].
32706 2013-04-11 13:28:35 /1108/1108.5446 2720000[\dsum]; 1 missing file[bibmods.sty].
32707 2013-04-11 13:28:25 /1108/1108.5409 2940000[{definition}, {keywords}, {AMS}, {proof}]; 1 missing file[siamlatex.cls].
32708 2013-04-11 13:27:52 /1108/1108.5421 1440000[\fnref, \tnoteref, \tnotetext, \cortext].
32709 2013-04-11 13:27:32 /1108/1108.5422 15280000[{IF}, {FOR}, \ELSE, {algorithm}, \twodots, {WHILE}, \RETURN, \proc, \TO, \NIL, \CALL]; 3 missing files[llncsdoc.sty, clrscode.sty, newalg.sty].
32710 2013-04-11 13:27:02 /1108/1108.5404 2940000[{xy}, \ar]; 1 missing file[xy.sty].
32711 2013-04-11 13:26:34 /1108/1108.5381 14910000[\slashed].
32712 2013-04-11 13:26:21 /1108/1108.5393 1920000[\cprime, \bfF].
32713 2013-04-11 13:26:17 /1108/1108.5402 220000[\maketitleblock, \address]; 1 missing file[aps2010.cls].
32714 2013-04-11 13:26:15 /1108/1108.5384 410000[Align].
32715 2013-04-11 13:25:19 /1108/1108.5382 010000[\theappendix].
32716 2013-04-11 13:25:05 /1108/1108.5349 8360000[\psfragfig, \nicefrac, \mathds, \psfrag, \mathinner]; 1 missing file[pstool.sty].
32717 2013-04-11 13:24:50 /1108/1108.5372 1180000[\apj, \citep, \apjl, \tabletypesize, \nat, \aap, \acknowledgments, \shortauthors, \memsai, \shorttitle, \email, \pasp, \araa, \aj, \citealt, \apjs, \mnras, \citet]; 1 missing file[gwp80.cls].
32718 2013-04-11 13:24:44 /1108/1108.5374 780000[\pacs, \email, \institute, \keywords, \articletype]; 1 missing file[cej.cls].
32719 2013-04-11 13:24:42 /1108/1108.5329 65340000[\subfloat, \dottedline]; 1 missing file[pict2e.sty].
32720 2013-04-11 13:24:40 /1108/1108.5364 23300000[\startlocaldefs, \affiliation, \runtitle, \address, \@close@row, \kwd, \snm, \fnms, {keyword}, \endlocaldefs, {aug}, Align, \runauthor, \printead, {frontmatter}, \ead]; 1 missing file[imsart.cls].
32721 2013-04-11 13:24:37 /1108/1108.5309 6510000[{comment}].
32722 2013-04-11 13:24:35 /1108/1108.5375 140000[Align, \xymatrix, \ar]; 1 missing file[xy.sty].
32723 2013-04-11 13:24:14 /1108/1108.5346 3410000[\theorembodyfont].
32724 2013-04-11 13:24:11 /1108/1108.5287 47520000[\slashed]; 1 missing file[mathtools.sty].
32725 2013-04-11 13:24:11 /1108/1108.5341 39660000[\doi, \syear, \affiliation, \printaddresses, \mathfrak, \volume, \bid, \address, \bfnm, \operatorname, \dvtx, \byear, \hyperref, \corref, \firstpage, \endbibitem, \received, \kwd, \mathbb, \bparticle, \bauthor, \snm, \btitle, \smonth, {aug}, \issue, \bsn
32726 2013-04-11 13:23:47 /1108/1108.5354 760000[\citep, \affiliation, \emailAdd, \keywords, \notoc]; 1 missing file[jcappub.sty].
32727 2013-04-11 13:23:22 /1108/1108.5356 2120000[Align, \xymatrix, \ar]; 9 missing files[xycurve.sty, xymatrix.sty, xyline.sty, xyarrow.sty, xycmtip.sty, xycolor.sty, xyrotate.sty, xyframe.sty, xygraph.sty].
32728 2013-04-11 13:22:51 /1108/1108.5348 1110000[\subjclassyear].
32729 2013-04-11 13:22:48 /1108/1108.5330 1280000[{lemma}, {theorem}, \Amax, \diam, \Fix, \dist, \eps, \FF, \bbN, \Leb, \Id, {remark}, \abs, {prop}, \Astat, \bbZ, \Amin, \Aff, \Iso, {definition}, \bbR, \GG, \bbC, \HH, \supp, \inter, \norm]; 1 missing file[massive-preambule.sty].
32730 2013-04-11 13:22:31 /1108/1108.5324 5360000[Align, \psplot, \xymatrix, \ar]; 2 missing files[pstricks-add.sty, xy.sty].
32731 2013-04-11 13:22:30 /1108/1108.5252 1950000[\ARep, \citep, \AstL, \apjl, \yCat, \PCCP, \MitAG, \JBAA, \RA, \MmSAI, \Accepted, \PZ, \OAP, \ChJAA, \LowOB, \ibvs, \AcA, \PVSS, \NInfo, \RMxAA, \aj, \apss, \JPhCS, \IEEEP, \SASS, \Ap, \Received, \caa, \AcApS, \BeSN, \AARv, \email, \AAHam, \bain, \SvA, \
32732 2013-04-11 13:22:21 /1108/1108.5305 5810000[{comment}].
32733 2013-04-11 13:22:19 /1108/1108.5335 4140000[\refb, {keywords}, \submitb, \titlehead, \References, \resthead, {authorl}, \titleb, \authorb, \addressb, {addressl}, \sectionb, {summary}]; 1 missing file[baltlat6.sty].
32734 2013-04-11 13:22:17 /1108/1108.5292 7620000[\mathds]; 1 missing file[microtype.sty].
32735 2013-04-11 13:21:57 /1108/1108.5300 4140000[\pdfstringdefDisableCommands, \xlongrightarrow]; 2 missing files[savesym.sty, todonotes.sty].
32736 2013-04-11 13:21:50 /1108/1108.5323 020000[\layoutstyle, \classification].
32737 2013-04-11 13:21:27 /1108/1108.5288 57120000[\nicefrac]; 1 missing file[filecontents.sty].
32738 2013-04-11 13:21:24 /1108/1108.5316 2990000[\overrideIEEEmargins, \IEEEoverridecommandlockouts, {proof}].
32739 2013-04-11 13:20:29 /1108/1108.5304 020000[\@end@institute]; 1 missing file[fix-cm.sty].
32740 2013-04-11 13:20:22 /1108/1108.5284 2150000[Align, \SelectTips, \xymatrix, \ar]; 1 missing file[xy.sty].
32741 2013-04-11 13:20:14 /1108/1108.5307 3170000[\resumen, \indexauthor, \shortauthor, \dateenglish, \altaffilmark, {changemargin}, \extrasenglish, \listofauthors, \shorttitle, \addkeyword, \altaffiltext, \fulladdresses, \captionsenglish].
32742 2013-04-11 13:20:00 /1108/1108.5257 5010000[\leftidx].
32743 2013-04-11 13:19:59 /1108/1108.5297 010000[\mathinner].
32744 2013-04-11 13:19:26 /1108/1108.5285 010000[\theappendix].
32745 2013-04-11 13:19:26 /1108/1108.5298 130000[\layoutstyle, \classification]; 1 missing file[{aipcheck}].
32746 2013-04-11 13:19:15 /1108/1108.5283 8200000[{overpic}, \layoutstyle, \classification].
32747 2013-04-11 13:19:04 /1108/1108.5273 040000[\linenomath, \affil, \endlinenomath]; 1 missing file[authblk.sty].
32748 2013-04-11 13:19:02 /1108/1108.5270 1940000[\extrasenglish, \noextrasenglish, \dateenglish, \captionsenglish].
32749 2013-04-11 13:18:58 /1108/1108.5249 480000[{example}, {definition}, {lemma}, {conjecture}, {theorem}, {corollary}, {remark}]; 1 missing file[jipam.sty].
32750 2013-04-11 13:18:52 /1108/1108.5276 1020000[\xyoption]; 1 missing file[xy.sty].
32751 2013-04-11 13:18:48 /1108/1108.5274 160000[{keywords}, \citep, \citet, \pagerange, \volume, \pubyear]; 1 missing file[basi.cls].
32752 2013-04-11 13:18:38 /1108/1108.5263 040000[\extrasenglish, \unitfrac, \dateenglish, \captionsenglish].
32753 2013-04-11 13:18:35 /1108/1108.5259 25600000[\rhead, \href, \equal, \ifthenelse, \url, \chead, \lhead, \tfrac, \hypersetup]; 1 missing file[contribution.sty].
32754 2013-04-11 13:18:33 /1108/1108.5260 5380000[\ccode, \catchline, \psfig, \refcite, \keywords, \includegraphics, \address, \gtrsim, {history}, \revised, \received]; 1 missing file[ws-ijmpcs.cls].
32755 2013-04-11 13:18:26 /1108/1108.5243 1860000[Align, \xymatrix, \ar]; 1 missing file[xy.sty].
32756 2013-04-11 13:18:20 /1108/1108.5240 640000[\affiliation, \emailAdd, \keywords]; 1 missing file[jheppub.sty].
32757 2013-04-11 13:18:04 /1108/1108.5255 1390000[\editors, \affiliation, \keywords, \volume, \firstsection, \pagerange, \jname, \pubyear, \etal]; 1 missing file[iaus.cls].
32758 2013-04-11 13:18:01 /1108/1108.5193 6180000[\extrasenglish, \slashed, {comment}, \geometry, \dateenglish, \captionsenglish]; 1 missing file[esint.sty].
32759 2013-04-11 13:18:01 /1108/1108.5231 2610000[{comment}].
32760 2013-04-11 13:17:54 /1108/1108.5229 9240000[\affil, \apj, \micron, {deluxetable}, \tablecomments, \startdata, \shorttitle, \email, \enddata, \colhead, \aj, \tablehead, \tablewidth, \keywords, \includegraphics, Align, \mnras, \apjs, \farcm, \tablecaption, \acknowledgements, \farcs]; 2 missing files
32761 2013-04-11 13:17:42 /1108/1108.5187 1640000[\affiliation, \emailAdd, \acknowledgments]; 1 missing file[jheppub.sty].
32762 2013-04-11 13:17:38 /1108/1108.5210 9220000[\powerset]; 1 missing file[MnSymbol.sty].
32763 2013-04-11 13:17:34 /1108/1108.5238 7640000[{xy}, \ar]; 2 missing files[stackrel.sty, chemarr.sty].
32764 2013-04-11 13:17:11 /1108/1108.5235 330000[\tensor]; 2 missing files[threeparttable.sty, tensor.sty].
32765 2013-04-11 13:17:10 /1108/1108.5212 94230000[\IEEEauthorblockA, \IEEEauthorblockN, {sideways}, \IEEEoverridecommandlockouts, \accentset, {IEEEproof}, \appendices]; 2 missing files[datetime.sty, IEEEtran.cls].
32766 2013-04-11 13:17:04 /1108/1108.5233 460000[\maketitleblock, \address]; 1 missing file[aps2010.cls].
32767 2013-04-11 13:16:56 /1108/1108.5234 0120000[\includegraphics, \affil, \gtrsim, \citep, \citet, \acknowledgements, \resetcounters]; 1 missing file[asp2010.sty].
32768 2013-04-11 13:16:47 /1108/1108.5220 1810000[\mathbb].
32769 2013-04-11 13:16:30 /1108/1108.5215 120000[\xyoption]; 1 missing file[xy.sty].
32770 2013-04-11 13:16:22 /1108/1108.5224 410000[\href].
32771 2013-04-11 13:16:05 /1108/1108.5188 1070000[\extrasenglish, \pdfpageheight, \pdfpagewidth, \dateenglish, \captionsenglish]; 2 missing files[esint.sty, pdfcolmk.sty].
32772 2013-04-11 13:15:36 /1108/1108.5199 4100000[\rhead, \equal, \epsfig, \lhead, \hypersetup, \href, \ifthenelse, \chead, \url]; 1 missing file[contribution.sty].
32773 2013-04-11 13:15:33 /1108/1108.5202 120000[\layoutstyle, \classification].
32774 2013-04-11 13:15:24 /1108/1108.5206 440000[{theacknowledgments}, \layoutstyle, \classification]; 1 missing file[{aipcheck}].
32775 2013-04-11 13:15:11 /1108/1108.5184 040000[\extrasenglish, \subfloat, \dateenglish, \captionsenglish].
32776 2013-04-11 13:14:51 /1108/1108.5182 340000[\slashed, {theacknowledgments}, \layoutstyle, \classification].
32777 2013-04-11 13:14:49 /1108/1108.5161 6430000[\subfloat, \subref]; 1 missing file[aas_macros.sty].
32778 2013-04-11 13:14:17 /1108/1108.5119 7370000[\fint]; 2 missing files[esint.sty, ot2.fontmap].
32779 2013-04-11 13:13:50 /1108/1108.5159 140000[\shortauthors, \email, \shorttitle, \tabletypesize]; 1 missing file[gwp80.cls].
32780 2013-04-11 13:13:44 /1108/1108.5162 150000[\shortauthors, \ion, \email, \shorttitle, \tabletypesize]; 1 missing file[gwp80.cls].
32781 2013-04-11 13:13:41 /1108/1108.5149 1720000[\@end@institute]; 1 missing file[fix-cm.sty].
32782 2013-04-11 13:13:29 /1108/1108.5168 5810000[\Square].
32783 2013-04-11 13:13:13 /1108/1108.5141 2950000[\unichar]; 3 missing files[hyphenat.sty, ucs.sty, xy.sty].
32784 2013-04-11 13:13:12 /1108/1108.5129 42200000[\includegraphics, \scalebox, \psfrag].
32785 2013-04-11 13:13:05 /1108/1108.5082 5280000[\psplot, \curveto, \closepath, \moveto, \lineto, \newpath]; 1 missing file[pst-math.sty].
32786 2013-04-11 13:13:00 /1108/1108.5114 8180000[Align, \address, \subjclass, \email, \xymatrix, \ar, \keywords]; 2 missing files[ert-l.cls, xy.sty].
32787 2013-04-11 13:13:00 /1108/1108.5133 8750000[\affiliation, \emailAdd, \keywords]; 2 missing files[picture.sty, jheppub.sty].
32788 2013-04-11 13:12:30 /1108/1108.5144 610000[\dint].
32789 2013-04-11 13:12:10 /1108/1108.5143 110000[\cortext].
32790 2013-04-11 13:11:50 /1108/1108.5136 210000[\meter].
32791 2013-04-11 13:11:48 /1108/1108.5110 1110000[{comment}].
32792 2013-04-11 13:11:43 /1108/1108.5134 110000[\cortext].
32793 2013-04-11 13:11:30 /1108/1108.5125 2720000[\pdfminorversion, \addtokomafont]; 1 missing file[scrartcl.cls].
32794 2013-04-11 13:11:09 /1108/1108.5124 030000[\@end@institute, \svhline]; 1 missing file[type1cm.sty].
32795 2013-04-11 13:11:07 /1108/1108.5104 6990000[{IEEEkeywords}, \IEEEPARstart, \IEEEpeerreviewmaketitle, \ifCLASSOPTIONcaptionsoff, {proof}, \ifCLASSINFOpdf]; 1 missing file[IEEEtran.cls].
32796 2013-04-11 13:11:04 /1108/1108.5091 7130000[\llangle, \rrangle]; 1 missing file[MnSymbol.sty].
32797 2013-04-11 13:11:04 /1108/1108.5116 13180000[\startlocaldefs, \affiliation, \thankstext, \runtitle, \address, \psfrag, \corref, \kwd, \snm, \fnms, {keyword}, \endlocaldefs, \runauthor, \printead, {frontmatter}, \ead]; 2 missing files[flafter.sty, imsart.cls].
32798 2013-04-11 13:10:54 /1108/1108.5109 5120000[\nicefrac, \cortext].
32799 2013-04-11 13:10:01 /1108/1108.5095 13210000[\SetKw, {algorithm}, \IEEEdisplaynotcompsoctitleabstractindextext, \Repeat, \ifCLASSOPTIONcompsoc, \If, \lElse, \KwFunction, {IEEEproof}, \KwReturn, \IEEEcompsoctitleabstractindextext, \IEEEpeerreviewmaketitle, \While, \ifCLASSOPTIONcaptionsoff, {IEEEkey
32800 2013-04-11 13:09:47 /1108/1108.5097 530000[Align, \subfloat, \cortext].
<<< >>>

[0] [200] [400] [600] [800] [1000] [1200] [1400] [1600] [1800] [2000] [2200] [2400] [2600] [2800] [3000] [3200] [3400] [3600] [3800] [4000] [4200] [4400] [4600] [4800] [5000] [5200] [5400] [5600] [5800] [6000] [6200] [6400] [6600] [6800] [7000] [7200] [7400] [7600] [7800] [8000] [8200] [8400] [8600] [8800] [9000] [9200] [9400] [9600] [9800] [10000] [10200] [10400] [10600] [10800] [11000] [11200] [11400] [11600] [11800] [12000] [12200] [12400] [12600] [12800] [13000] [13200] [13400] [13600] [13800] [14000] [14200] [14400] [14600] [14800] [15000] [15200] [15400] [15600] [15800] [16000] [16200] [16400] [16600] [16800] [17000] [17200] [17400] [17600] [17800] [18000] [18200] [18400] [18600] [18800] [19000] [19200] [19400] [19600] [19800] [20000] [20200] [20400] [20600] [20800] [21000] [21200] [21400] [21600] [21800] [22000] [22200] [22400] [22600] [22800] [23000] [23200] [23400] [23600] [23800] [24000] [24200] [24400] [24600] [24800] [25000] [25200] [25400] [25600] [25800] [26000] [26200] [26400] [26600] [26800] [27000] [27200] [27400] [27600] [27800] [28000] [28200] [28400] [28600] [28800] [29000] [29200] [29400] [29600] [29800] [30000] [30200] [30400] [30600] [30800] [31000] [31200] [31400] [31600] [31800] [32000] [32200] [32400] [32600] [32800] [33000] [33200] [33400] [33600] [33800] [34000] [34200] [34400] [34600] [34800] [35000] [35200] [35400] [35600] [35800] [36000] [36200] [36400] [36600] [36800] [37000] [37200] [37400] [37600] [37800] [38000] [38200] [38400] [38600] [38800] [39000] [39200] [39400] [39600] [39800] [40000] [40200] [40400] [40600] [40800] [41000] [41200] [41400] [41600] [41800] [42000] [42200] [42400] [42600] [42800] [43000] [43200] [43400] [43600] [43800] [44000] [44200] [44400] [44600] [44800] [45000] [45200] [45400] [45600] [45800] [46000] [46200] [46400] [46600] [46800] [47000] [47200] [47400] [47600] [47800] [48000] [48200] [48400] [48600] [48800] [49000] [49200] [49400] [49600] [49800] [50000] [50200] [50400] [50600] [50800] [51000] [51200] [51400] [51600] [51800] [52000] [52200] [52400] [52600] [52800] [53000] [53200] [53400] [53600] [53800] [54000] [54200] [54400] [54600] [54800] [55000] [55200] [55400] [55600] [55800] [56000] [56200] [56400] [56600] [56800] [57000] [57200] [57400] [57600] [57800] [58000] [58200] [58400] [58600] [58800] [59000] [59200] [59400] [59600] [59800] [60000] [60200] [60400] [60600] [60800] [61000] [61200] [61400] [61600] [61800] [62000] [62200] [62400] [62600] [62800] [63000] [63200] [63400] [63600] [63800] [64000] [64200] [64400] [64600] [64800] [65000] [65200] [65400] [65600] [65800] [66000] [66200] [66400] [66600] [66800] [67000] [67200] [67400] [67600] [67800] [68000] [68200] [68400] [68600] [68800] [69000] [69200] [69400] [69600] [69800] [70000] [70200] [70400] [70600] [70800] [71000] [71200] [71400] [71600] [71800] [72000] [72200] [72400] [72600] [72800] [73000] [73200] [73400] [73600] [73800] [74000] [74200] [74400] [74600] [74800] [75000] [75200] [75400] [75600] [75800] [76000] [76200] [76400] [76600] [76800] [77000] [77200] [77400] [77600] [77800] [78000] [78200] [78400] [78600] [78800] [79000] [79200] [79400] [79600] [79800] [80000] [80200] [80400] [80600] [80800] [81000] [81200] [81400] [81600] [81800] [82000] [82200] [82400] [82600] [82800] [83000] [83200] [83400] [83600] [83800] [84000] [84200] [84400] [84600] [84800] [85000] [85200] [85400] [85600] [85800] [86000] [86200] [86400] [86600] [86800] [87000] [87200] [87400] [87600] [87800] [88000] [88200] [88400] [88600] [88800] [89000] [89200] [89400] [89600] [89800] [90000] [90200] [90400] [90600] [90800] [91000] [91200] [91400] [91600] [91800] [92000] [92200] [92400] [92600] [92800] [93000] [93200] [93400] [93600] [93800] [94000] [94200] [94400] [94600] [94800] [95000] [95200] [95400] [95600] [95800] [96000] [96200] [96400] [96600] [96800] [97000] [97200] [97400] [97600] [97800] [98000] [98200] [98400] [98600] [98800] [99000] [99200] [99400] [99600] [99800] [100000] [100200] [100400] [100600] [100800] [101000] [101200] [101400] [101600] [101800] [102000] [102200] [102400] [102600] [102800] [103000] [103200] [103400] [103600] [103800] [104000] [104200] [104400] [104600] [104800] [105000] [105200] [105400] [105600] [105800] [106000] [106200] [106400] [106600] [106800] [107000] [107200] [107400] [107600] [107800] [108000] [108200] [108400] [108600] [108800] [109000] [109200] [109400] [109600] [109800] [110000] [110200] [110400] [110600] [110800] [111000] [111200] [111400] [111600] [111800] [112000] [112200] [112400] [112600] [112800] [113000] [113200] [113400] [113600] [113800] [114000] [114200] [114400] [114600] [114800] [115000] [115200] [115400] [115600] [115800] [116000] [116200] [116400] [116600] [116800] [117000] [117200] [117400] [117600] [117800] [118000] [118200] [118400] [118600] [118800] [119000] [119200] [119400] [119600] [119800] [120000] [120200] [120400] [120600] [120800] [121000] [121200] [121400] [121600] [121800] [122000] [122200] [122400] [122600] [122800] [123000] [123200] [123400] [123600] [123800] [124000] [124200] [124400] [124600] [124800] [125000] [125200] [125400] [125600] [125800] [126000] [126200] [126400] [126600] [126800] [127000] [127200] [127400] [127600] [127800] [128000] [128200] [128400] [128600] [128800] [129000] [129200] [129400] [129600] [129800] [130000] [130200] [130400] [130600] [130800] [131000] [131200] [131400] [131600] [131800] [132000] [132200] [132400] [132600] [132800] [133000] [133200] [133400] [133600] [133800] [134000] [134200] [134400] [134600] [134800] [135000] [135200] [135400] [135600] [135800] [136000] [136200] [136400] [136600] [136800] [137000] [137200] [137400] [137600] [137800] [138000] [138200] [138400] [138600] [138800] [139000] [139200] [139400] [139600] [139800] [140000] [140200] [140400] [140600] [140800] [141000] [141200] [141400] [141600] [141800] [142000] [142200] [142400] [142600] [142800] [143000] [143200] [143400] [143600] [143800] [144000] [144200] [144400] [144600] [144800] [145000] [145200] [145400] [145600] [145800] [146000] [146200] [146400] [146600] [146800] [147000] [147200] [147400] [147600] [147800] [148000] [148200] [148400] [148600] [148800] [149000] [149200] [149400] [149600] [149800] [150000] [150200] [150400] [150600] [150800] [151000] [151200] [151400] [151600] [151800] [152000] [152200] [152400] [152600] [152800] [153000] [153200] [153400] [153600] [153800] [154000] [154200] [154400] [154600] [154800] [155000] [155200] [155400] [155600] [155800] [156000] [156200] [156400] [156600] [156800] [157000] [157200] [157400] [157600] [157800] [158000] [158200] [158400] [158600] [158800] [159000] [159200] [159400] [159600] [159800] [160000] [160200] [160400] [160600] [160800] [161000] [161200] [161400] [161600] [161800] [162000] [162200] [162400] [162600] [162800] [163000] [163200] [163400] [163600] [163800] [164000] [164200] [164400] [164600]
 
  The service has been written by
Heinrich Stamerjohanns